Metcalfe, MS

3:03 PM CDT on August 26, 2016 (GMT -0500)
Mid Delta Regional

Weather History for KGLH - January, 2015

Change the Weather History Date:

Friday, January 16, 2015

  Actual Average Record
Temperature  
Mean Temperature 40 °F 42 °F  
Max Temperature 54 °F 51 °F 81 °F (1943)
Min Temperature 26 °F 33 °F 10 °F (1982)
Degree Days  
Heating Degree Days 25 23  
Month to date heating degree days 443 365  
Since 1 July heating degree days 1510 1449  
Cooling Degree Days 0 0  
Month to date cooling degree days 0 0  
Year to date cooling degree days 0 0  
Moisture  
Dew Point 28 °F    
Average Humidity 71    
Maximum Humidity 100    
Minimum Humidity 41    
Precipitation  
Precipitation 0.00 in 0.16 in 2.20 in (2006)
Month to date precipitation 2.09 2.38  
Year to date precipitation 2.09 2.38  
Sea Level Pressure  
Sea Level Pressure 30.29 in    
Wind  
Wind Speed 4 mph (South)    
Max Wind Speed 10 mph    
Max Gust Speed 13 mph    
Visibility 5 miles    
Events Fog    
T = Trace of Precipitation, MM = Missing Value Source: NWS Daily Summary

Daily Weather History Graph

Daily Weather History Graph

Search for Another Location

Airport or City:

Trip Planner

Search our weather history database for the weather conditions in past years. The results will help you decide how hot, cold, wet, or windy it might be!

Date:

Astronomy

Jan. 16, 2015 Rise Set
Actual Time 7:07 AM CST 5:19 PM CST
Civil Twilight 6:40 AM CST 5:46 PM CST
Nautical Twilight 6:10 AM CST 6:17 PM CST
Astronomical Twilight 5:40 AM CST 6:47 PM CST
Moon 3:05 AM CST (1/16) 1:53 PM CST (1/16)
Length of Visible Light 11h 05m
Length of Day
10h 11m
Waning Crescent, 18% of the Moon is Illuminated
Jan 16
Waning Crescent
Jan 20
New
Jan 26
First Quarter
Feb 3
Full
Feb 11
Last Quarter

Hourly Weather History & Observations

Time (CST) Temp. Windchill Dew Point Humidity Pressure Visibility Wind Dir Wind Speed Gust Speed Precip Events Conditions
12:53 AM 28.9 °F - 26.1 °F 89% 30.32 in 6.0 mi Calm Calm - N/A   Clear
1:53 AM 27.0 °F - 25.0 °F 92% 30.32 in 7.0 mi Calm Calm - N/A   Clear
2:53 AM 28.9 °F - 26.1 °F 89% 30.32 in 4.0 mi Calm Calm - N/A   Clear
3:30 AM 27.0 °F - 24.1 °F 89% 30.28 in 1.8 mi Calm Calm - N/A   Clear
3:40 AM 27.0 °F - 23.0 °F 85% 30.28 in 0.5 mi Calm Calm - N/A Fog Light Freezing Fog
3:53 AM 27.0 °F - 25.0 °F 92% 30.32 in 0.2 mi Calm Calm - N/A Fog Light Freezing Fog
4:13 AM 27.0 °F - 24.1 °F 89% 30.29 in 0.5 mi Calm Calm - N/A Fog Light Freezing Fog
4:22 AM 28.0 °F - 25.0 °F 88% 30.30 in 0.2 mi Calm Calm - N/A Fog Light Freezing Fog
4:32 AM 27.0 °F - 24.1 °F 89% 30.30 in 0.5 mi Calm Calm - N/A Fog Light Freezing Fog
4:49 AM 26.6 °F - 24.8 °F 93% 30.29 in 0.2 mi Calm Calm - N/A Fog Light Freezing Fog
4:53 AM 26.1 °F - 24.1 °F 92% 30.32 in 0.2 mi Calm Calm - N/A Fog Light Freezing Fog
5:05 AM 26.1 °F 20.5 °F 24.1 °F 92% 30.29 in 0.8 mi South 4.6 mph - N/A   Clear
5:11 AM 27.0 °F 23.0 °F 25.0 °F 92% 30.29 in 2.0 mi South 3.5 mph - N/A   Clear
5:19 AM 27.0 °F - 25.0 °F 92% 30.30 in 3.0 mi Calm Calm - N/A   Clear
5:53 AM 28.4 °F 24.6 °F 26.6 °F 93% 30.29 in 5.0 mi South 3.5 mph - N/A   Clear
6:26 AM 27.0 °F 21.6 °F 25.0 °F 92% 30.30 in 1.8 mi South 4.6 mph - N/A   Clear
6:34 AM 27.0 °F 21.6 °F 25.0 °F 92% 30.30 in 0.2 mi South 4.6 mph - N/A Fog Light Freezing Fog
6:46 AM 27.0 °F 21.6 °F 25.0 °F 92% 30.30 in 1.0 mi South 4.6 mph - N/A   Clear
6:50 AM 26.6 °F 20.0 °F 24.8 °F 93% 30.30 in 3.0 mi South 5.8 mph - N/A   Clear
6:53 AM 27.0 °F 21.6 °F 25.0 °F 92% 30.33 in 4.0 mi South 4.6 mph - N/A   Clear
7:53 AM 28.4 °F - 28.4 °F 100% 30.31 in 5.0 mi Calm Calm - N/A   Clear
8:53 AM 36.0 °F 33.3 °F 32.0 °F 86% 30.36 in 7.0 mi SW 3.5 mph - N/A   Clear
9:53 AM 42.1 °F 39.2 °F 32.0 °F 67% 30.37 in 9.0 mi SSW 4.6 mph - N/A   Clear
10:53 AM 46.0 °F 43.1 °F 34.0 °F 63% 30.36 in 8.0 mi South 5.8 mph - N/A   Clear
11:53 AM 50.0 °F - 30.0 °F 46% 30.32 in 9.0 mi Calm Calm - N/A   Clear
12:53 PM 53.1 °F - 32.0 °F 45% 30.30 in 9.0 mi South 8.1 mph - N/A   Clear
1:53 PM 54.0 °F - 30.9 °F 41% 30.27 in 9.0 mi Calm Calm - N/A   Clear
2:53 PM 53.1 °F - 30.0 °F 41% 30.26 in 8.0 mi SW 5.8 mph - N/A   Clear
3:53 PM 53.1 °F - 30.9 °F 43% 30.26 in 9.0 mi SW 8.1 mph - N/A   Clear
4:53 PM 48.9 °F - 34.0 °F 56% 30.26 in 10.0 mi SSW 5.8 mph - N/A   Clear
5:53 PM 46.9 °F - 35.1 °F 63% 30.25 in 10.0 mi SSE 3.5 mph - N/A   Clear
6:53 PM 44.1 °F 40.8 °F 34.0 °F 68% 30.26 in 10.0 mi South 5.8 mph - N/A   Clear
7:53 PM 42.1 °F 38.4 °F 33.1 °F 70% 30.25 in 10.0 mi South 5.8 mph - N/A   Clear
8:53 PM 39.9 °F 35.1 °F 33.1 °F 77% 30.23 in 10.0 mi South 6.9 mph - N/A   Clear
9:53 PM 41.0 °F 37.1 °F 33.1 °F 73% 30.23 in 10.0 mi South 5.8 mph - N/A   Clear
10:53 PM 37.0 °F 31.0 °F 32.0 °F 82% 30.22 in 10.0 mi South 8.1 mph - N/A   Clear
11:53 PM 37.0 °F 31.0 °F 32.0 °F 82% 30.22 in 10.0 mi South 8.1 mph - N/A   Clear